Visibility
15.0 15.0 15.0 15.0 13.6 15.0 14.6 11.3 11.1 13.5 15.0 12.8 2.7 3.4 13.6 15.0 15.0 15.0 15.0 15.0 15.0 15.0 15.0 15.0 15.0 15.0 12.6 15.0 15.0 15.0 15.0 15.0 13.5 8.1 15.0 15.0 9.1 14.2 15.0 15.0 15.0 15.0 15.0 15.0
15.0 15.0 15.0 15.0 15.0 15.0 0.3 14.8 15.0 15.0 15.0 15.0 6.1 3.4 7.8 15.0 15.0 15.0 15.0 15.0 15.0 15.0 15.0 15.0 15.0 15.0 15.0 15.0 15.0 15.0 15.0 15.0 15.0 15.0 4.4 15.0 15.0 4.8 15.0 15.0 15.0 15.0 15.0 15.0
15.0 15.0 15.0 15.0 15.0 15.0 15.0 11.0 12.3 0.2 14.5 15.0 11.7 5.5 15.0 15.0 15.0 15.0 15.0 15.0 15.0 15.0 15.0 15.0 15.0 15.0 15.0 15.0 15.0 15.0 15.0 15.0 15.0 15.0 15.0 15.0 15.0 7.8 14.4 13.9 14.3 15.0 15.0 4.2
8.8 15.0 15.0 15.0 15.0 15.0 15.0 12.0 15.0 15.0 6.8 4.8 15.0 8.5 6.9 15.0 15.0 15.0 15.0 15.0 15.0 15.0 15.0 15.0 15.0 15.0 15.0 15.0 15.0 15.0 15.0 15.0 15.0 15.0 15.0 15.0 15.0 15.0 15.0 15.0 11.1 10.8 15.0 15.0
15.0 15.0 15.0 15.0 15.0 15.0 8.9 15.0 15.0 11.5 6.6 9.8 15.0 15.0 15.0 15.0 15.0 15.0 15.0 15.0 15.0 15.0 15.0 15.0 15.0 15.0 15.0 15.0 15.0 15.0 15.0 15.0 15.0 15.0 15.0 15.0 15.0 15.0 15.0 10.6 11.4 15.0 15.0 6.9
9.8 15.0 15.0 15.0 15.0 15.0 15.0 0.0 15.0 15.0 15.0 15.0 15.0 15.0 15.0 15.0 15.0 15.0 15.0 15.0 15.0 15.0 15.0 15.0 15.0 15.0 15.0 15.0 15.0 15.0 15.0 15.0 15.0 15.0 15.0 15.0 15.0 15.0 15.0 15.0 13.8 15.0 15.0 13.7
15.0 14.9 15.0 15.0 15.0 15.0 15.0 0.1 15.0 15.0 15.0 15.0 15.0 15.0 15.0 15.0 15.0 15.0 15.0 15.0 15.0 15.0 15.0 15.0 15.0 15.0 15.0 15.0 15.0 15.0 15.0 15.0 15.0 15.0 15.0 15.0 15.0 15.0 15.0 0.3 0.1 0.1 0.1 0.1
14.7 5.2 4.6 15.0 15.0 13.3 10.1 15.0 14.1 15.0 15.0 11.9 15.0 15.0 15.0 15.0 15.0 15.0 15.0 15.0 15.0 15.0 15.0 15.0 15.0 15.0 15.0 15.0 15.0 15.0 15.0 15.0 15.0 15.0 15.0 15.0 15.0 15.0 15.0 0.8 0.1 0.1 0.1 0.1
15.0 15.0 10.3 15.0 15.0 15.0 15.0 8.1 15.0 8.1 15.0 15.0 15.0 15.0 15.0 15.0 15.0 15.0 15.0 15.0 15.0 15.0 15.0 15.0 15.0 15.0 11.8 13.9 15.0 15.0 15.0 15.0 15.0 15.0 15.0 15.0 15.0 15.0 15.0 15.0 15.0 11.9 8.1 4.2
5.7 13.4 15.0 15.0 8.1 15.0 15.0 15.0 15.0 15.0 15.0 15.0 15.0 15.0 15.0 15.0 15.0 15.0 15.0 15.0 15.0 15.0 15.0 15.0 15.0 15.0 15.0 15.0 15.0 15.0 15.0 15.0 15.0 15.0 15.0 15.0 15.0 15.0 3.7 7.1 13.8 6.6 4.6 3.6
0.0 4.2 8.6 14.2 14.7 14.5 15.0 15.0 15.0 15.0 15.0 15.0 15.0 15.0 15.0 15.0 15.0 15.0 15.0 15.0 15.0 15.0 15.0 12.7 15.0 15.0 15.0 15.0 15.0 15.0 15.0 15.0 15.0 15.0 15.0 15.0 1.2 0.1 0.2 0.1 0.3 1.0 0.3 0.9
0.0 0.1 0.1 0.0 15.0 13.3 5.2 14.8 15.0 15.0 15.0 15.0 15.0 15.0 15.0 15.0 15.0 13.2 6.7 12.6 8.1 4.6 7.3 2.7 7.9 5.6 9.5 15.0 15.0 15.0 15.0 15.0 15.0 15.0 15.0 15.0 15.0 15.0 8.9 0.1 0.1 0.1 0.1 0.2
0.0 0.0 0.1 0.1 12.0 15.0 15.0 14.7 15.0 15.0 15.0 15.0 15.0 15.0 15.0 15.0 15.0 14.9 15.0 13.5 1.2 0.5 1.3 1.2 1.7 1.3 1.1 3.2 10.2 15.0 14.8 7.7 12.3 12.2 12.9 15.0 15.0 15.0 1.9 0.5 2.3 0.2 0.1 0.1
9.9 0.2 6.0 15.0 6.3 15.0 15.0 15.0 15.0 15.0 15.0 15.0 15.0 15.0 15.0 14.7 14.8 7.2 0.9 0.4 1.7 2.4 1.6 1.9 3.6 0.5 0.6 5.5 13.1 10.7 14.2 9.9 3.8 3.6 4.8 5.1 1.6 4.4 7.5 0.3 0.1 0.1 0.1 0.1
15.0 15.0 15.0 15.0 15.0 15.0 15.0 15.0 15.0 15.0 15.0 15.0 15.0 15.0 15.0 10.2 2.4 0.6 0.8 12.4 15.0 15.0 5.7 7.6 6.8 0.4 1.0 15.0 9.4 2.9 5.5 6.3 8.7 10.0 10.1 8.3 10.0 5.0 3.3 1.6 0.2 0.1 0.1 0.2
15.0 15.0 15.0 15.0 15.0 15.0 15.0 15.0 15.0 15.0 15.0 15.0 14.1 7.2 1.9 1.7 1.2 1.4 3.8 13.0 7.5 0.6 0.7 1.9 1.1 0.3 2.1 5.6 12.9 9.7 5.7 3.1 11.6 11.8 13.3 11.1 9.1 3.3 1.2 1.1 1.2 0.5 0.2 0.1
5.2 1.3 14.8 14.6 15.0 15.0 6.0 15.0 15.0 6.0 0.8 0.6 0.5 0.8 6.6 14.2 11.6 4.9 1.7 3.2 9.4 8.5 6.4 6.9 1.4 14.9 15.0 15.0 6.1 3.6 15.0 15.0 15.0 2.9 2.0 4.2 6.5 8.3 14.9 13.8 5.1 1.8 0.5 7.1
7.8 9.0 12.1 15.0 15.0 15.0 7.4 3.7 1.6 1.6 0.4 0.5 1.5 3.6 3.3 3.3 1.6 1.0 1.3 15.0 15.0 15.0 15.0 15.0 15.0 15.0 15.0 15.0 15.0 15.0 15.0 14.8 15.0 9.4 4.6 3.9 9.2 10.0 7.5 9.3 12.2 5.2 4.9 15.0
2.4 1.1 1.7 1.7 1.4 2.3 2.2 1.4 0.5 0.5 0.4 0.7 1.5 0.9 1.8 1.5 1.4 3.0 15.0 15.0 14.7 8.6 2.1 15.0 15.0 15.0 15.0 15.0 15.0 15.0 15.0 15.0 15.0 6.3 6.7 7.7 2.9 3.8 4.3 4.8 2.4 1.9 10.4 10.3
0.6 0.7 2.5 1.6 6.0 10.1 1.1 0.6 1.3 1.5 0.7 0.8 1.4 2.7 3.4 4.1 15.0 15.0 15.0 2.5 1.5 0.8 5.8 7.8 15.0 15.0 15.0 15.0 11.3 15.0 10.0 4.6 7.7 6.7 4.8 3.6 2.7 1.4 2.3 4.5 3.0 1.7 1.9 2.1
0.8 2.3 2.7 2.9 0.9 1.5 0.9 1.4 9.8 1.8 1.1 9.3 15.0 6.1 2.0 3.1 15.0 15.0 15.0 5.1 8.7 15.0 15.0 15.0 15.0 11.1 15.0 14.0 15.0 9.5 15.0 15.0 5.7 8.1 7.0 4.3 4.1 4.1 3.7 5.0 4.0 3.5 2.9 3.0
0.8 0.9 0.7 0.8 1.9 0.7 0.6 0.7 1.8 2.5 4.3 10.6 12.4 15.0 15.0 15.0 15.0 15.0 12.0 10.4 15.0 15.0 13.5 4.0 8.2 11.4 12.2 15.0 15.0 10.1 15.0 13.4 9.0 12.6 10.6 15.0 9.3 4.0 3.9 5.7 3.0 3.9 4.1 4.8
0.5 0.4 0.2 0.5 1.5 0.5 0.8 11.4 15.0 15.0 15.0 15.0 15.0 15.0 15.0 15.0 15.0 9.1 4.9 15.0 15.0 15.0 15.0 7.5 11.6 15.0 4.1 15.0 15.0 15.0 14.9 4.5 2.5 2.0 2.8 4.0 4.1 4.1 4.1 4.8 3.0 1.6 1.5 2.8
0.4 0.4 0.8 9.8 15.0 15.0 15.0 15.0 15.0 15.0 15.0 15.0 5.0 10.3 15.0 7.9 4.9 15.0 15.0 15.0 14.6 8.9 4.8 4.1 5.4 4.1 12.9 6.4 7.7 5.3 5.3 15.0 4.0 3.6 1.8 2.3 3.3 4.1 4.1 4.4 2.3 1.1 1.2 2.7
0.2 0.2 0.3 1.8 15.0 15.0 15.0 15.0 15.0 15.0 15.0 15.0 14.3 15.0 15.0 15.0 14.5 13.1 15.0 5.4 7.0 14.1 15.0 11.6 15.0 11.6 5.2 4.8 3.7 8.1 7.7 9.3 8.6 3.1 3.9 1.7 3.5 4.1 3.5 3.2 3.1 3.7 4.1 4.1
15.0 15.0 15.0 15.0 15.0 11.6 8.9 9.2 1.7 0.8 4.1 3.6 4.1 8.3 5.3 6.6 10.1 6.4 9.1 4.0 1.4 4.4 12.4 15.0 15.0 15.0 15.0 13.2 5.4 4.1 15.0 15.0 15.0 4.8 4.1 2.8 1.9 4.1 4.1 4.1 4.6 4.1 2.4 2.5
15.0 15.0 15.0 15.0 15.0 15.0 0.9 0.6 0.7 0.5 0.5 2.6 3.5 5.4 7.5 4.8 4.7 9.4 6.1 6.6 15.0 10.8 1.9 1.1 1.1 1.6 5.2 4.5 15.0 7.9 4.4 3.1 5.4 10.4 4.1 4.1 2.4 1.2 2.0 4.1 4.7 4.4 4.1 3.8